Regional Weather Roundup
Issued by NWS

Home | Current Version | Previous Version | Graphics & Text | Print | Product List | Glossary On
Versions: 1 2 3 4 5 6 7 8 9 10 11 12 13 14 15 16 17 18 19 20 21 22 23 24 25 26 27 28 29 30 31 32 33 34 35 36 37 38 39 40 41 42 43 44 45 46 47 48 49 50
000
ASUS45 KBOI 040310
RWRID

IDAHO REGIONAL WEATHER ROUNDUP
NATIONAL WEATHER SERVICE BOISE ID
900 PM MDT MON AUG 03 2015

NOTE: "FAIR" INDICATES FEW OR NO CLOUDS BELOW 12000 FEET
WITH NO SIGNIFICANT WEATHER AND/OR OBSTRUCTIONS TO VISIBILITY

IDZ012-014-040400-
SOUTHWEST IDAHO


CITY           SKY/WX    TMP DP  RH WIND       PRES   REMARKS
BOISE          MOCLDY    88  47  24 NW5       29.85R
CALDWELL       MOCLDY    84  50  30 NW5       29.84S
MOUNTAIN HOME  PTCLDY    89  46  22 N5        29.85R
$$

IDZ016-017-040400-
SOUTHCENTRAL IDAHO


CITY           SKY/WX    TMP DP  RH WIND       PRES   REMARKS
BURLEY         MOCLDY    72  50  45 S6        29.97S
JEROME         MOCLDY    74  51  44 E8        29.96R
TWIN FALLS     PTCLDY    79  46  31 SE9       29.95R
$$

IDZ019>023-040400-
SOUTHEAST IDAHO


CITY           SKY/WX    TMP DP  RH WIND       PRES   REMARKS
IDAHO FALLS    CLOUDY    66  55  67 S17       30.03F
POCATELLO      MOCLDY    67  60  78 SE7       30.03F
REXBURG        CLOUDY    67  49  52 NE8       30.05R
$$

IDZ006-010-011-018-031-032-040400-
CENTRAL IDAHO MOUNTAINS


CITY           SKY/WX    TMP DP  RH WIND       PRES   REMARKS
MCCALL         CLOUDY    69  47  45 CALM      30.02S
HAILEY         PTCLDY    66  52  59 NW8       30.06S
STANLEY          N/A     63  43  48 S5        30.14R
SALMON         CLOUDY    75  45  33 W5        29.92R
CHALLIS        CLOUDY    74  42  31 CALM      30.04R
$$

IDZ002-004-006-007-026-040400-
NORTHERN IDAHO


CITY           SKY/WX    TMP DP  RH WIND       PRES   REMARKS
LEWISTON       CLOUDY    85  44  23 NW14G21   29.83R
LOWELL           N/A     76  55  48 N3        29.81S
COEUR D`ALENE  CLOUDY    82  43  24 SW16G23   29.82S
MULLAN PASS    CLOUDY    65  37  35 NW7       30.07S
$$


USA.gov is the U.S. government's official web portal to all federal, state and local government web resources and services.